Location: Quedlinburg
(51.7921°N, 11.1414°E)
Time: 13:29:49
(UTC+02:00)

RS-15 - Pass Details

Date: 19 March 2026
Orbit: 1893 x 2152 km, 64.8° (Epoch: 22 April)

Event Time Altitude Azimuth Distance (km) Brightness Sun altitude
Rises 20:27:16 0° 218° (SW) 5,264 10.5 -18.9°
Reaches altitude 10° 20:30:27 10° 219° (SW) 4,272 10.0 -19.3°
Maximum altitude 20:41:23 89° 129° (SE) 1,929 7.9 -20.8°
Drops below altitude 10° 20:52:44 10° 43° (NE) 4,422 9.8 -22.3°
Sets 20:56:07 0° 44° (NE) 5,455 10.3 -22.8°
